TimeEDT,TemperatureF,Dew PointF,Humidity,Sea Level PressureIn,VisibilityMPH,Wind Direction,Wind SpeedMPH,Gust SpeedMPH,PrecipitationIn,Events,Conditions,WindDirDegrees,DateUTC
12:53 AM,77.0,75.0,94,30.00,10.0,Calm,Calm,-,N/A,,Partly Cloudy,0,2013-07-26 04:53:00
1:53 AM,77.0,75.0,94,29.99,10.0,Calm,Calm,-,N/A,,Clear,0,2013-07-26 05:53:00
2:53 AM,77.0,75.0,94,29.97,9.0,Calm,Calm,-,N/A,,Clear,0,2013-07-26 06:53:00
3:53 AM,77.0,75.0,94,29.98,9.0,Calm,Calm,-,N/A,,Clear,0,2013-07-26 07:53:00
4:53 AM,75.9,73.9,94,29.97,9.0,NW,3.5,-,N/A,,Clear,310,2013-07-26 08:53:00
5:53 AM,75.9,73.9,94,29.99,10.0,WNW,3.5,-,N/A,,Clear,290,2013-07-26 09:53:00
6:53 AM,75.9,73.9,94,30.00,8.0,Calm,Calm,-,N/A,,Clear,0,2013-07-26 10:53:00
7:14 AM,75.2,73.4,94,30.01,7.0,Calm,Calm,-,N/A,,Scattered Clouds,0,2013-07-26 11:14:00
7:53 AM,77.0,75.0,94,30.01,7.0,Calm,Calm,-,N/A,,Scattered Clouds,0,2013-07-26 11:53:00
8:53 AM,80.1,75.9,87,30.03,10.0,Variable,3.5,-,N/A,,Partly Cloudy,0,2013-07-26 12:53:00
9:22 AM,80.6,77.0,89,30.03,10.0,Variable,3.5,-,N/A,,Partly Cloudy,0,2013-07-26 13:22:00
9:53 AM,82.9,75.9,79,30.02,10.0,NNW,3.5,-,N/A,,Partly Cloudy,340,2013-07-26 13:53:00
10:53 AM,86.0,75.9,72,30.03,10.0,NNW,4.6,-,N/A,,Partly Cloudy,330,2013-07-26 14:53:00
11:53 AM,88.0,75.0,65,30.03,10.0,NNE,4.6,-,N/A,,Partly Cloudy,20,2013-07-26 15:53:00
12:53 PM,90.0,73.9,59,30.03,10.0,West,3.5,-,N/A,,Partly Cloudy,280,2013-07-26 16:53:00
1:53 PM,91.9,73.0,54,30.01,10.0,NNW,6.9,-,N/A,,Partly Cloudy,340,2013-07-26 17:53:00
2:53 PM,91.0,72.0,53,29.99,10.0,NNW,5.8,-,N/A,,Clear,340,2013-07-26 18:53:00
3:53 PM,93.0,71.1,49,29.97,10.0,NW,3.5,-,N/A,,Clear,320,2013-07-26 19:53:00
4:53 PM,93.0,72.0,50,29.97,10.0,Variable,3.5,-,N/A,,Clear,0,2013-07-26 20:53:00
5:53 PM,89.1,75.0,63,29.97,10.0,West,9.2,-,N/A,,Mostly Cloudy,280,2013-07-26 21:53:00
6:53 PM,82.0,69.1,65,29.98,10.0,NNW,13.8,-,0.01,,Mostly Cloudy,340,2013-07-26 22:53:00
7:09 PM,80.6,69.8,70,29.98,10.0,NW,5.8,-,N/A,Thunderstorm,Thunderstorm,310,2013-07-26 23:09:00
7:36 PM,80.6,71.6,74,30.01,10.0,ESE,11.5,19.6,N/A,Thunderstorm,Mostly Cloudy,110,2013-07-26 23:36:00
7:49 PM,78.8,73.4,83,29.99,3.0,East,15.0,20.7,0.05,Rain,Heavy Rain,100,2013-07-26 23:49:00
7:53 PM,79.0,73.0,82,29.99,2.0,SE,9.2,20.7,0.07,Rain,Heavy Rain,130,2013-07-26 23:53:00
8:05 PM,77.0,73.4,89,29.99,9.0,SE,4.6,-,0.01,Rain,Light Rain,140,2013-07-27 00:05:00
8:53 PM,79.0,75.9,90,30.00,10.0,Calm,Calm,-,0.01,,Clear,0,2013-07-27 00:53:00
9:53 PM,79.0,75.9,90,30.01,9.0,NE,4.6,-,N/A,,Partly Cloudy,40,2013-07-27 01:53:00
10:53 PM,78.1,75.0,90,30.02,10.0,ESE,3.5,-,N/A,,Clear,120,2013-07-27 02:53:00
11:53 PM,78.1,75.0,90,30.02,10.0,Calm,Calm,-,N/A,,Clear,0,2013-07-27 03:53:00